{"data":{"norad_id":85246,"epoch":"2026-09-15T19:13:18.846048Z","epoch_age_seconds":424160,"freshness":"STALE","line1":"1 85246U          26258.80091257  .00000564  00000+0  21299-3 0  9990","line2":"2 85246  98.0019 241.6692 0220326 206.0290 152.9678 14.22248489662442","mean_motion":14.22248489,"eccentricity":0.0220326,"inclination_deg":98.0019,"raan_deg":241.6692,"arg_perigee_deg":206.029,"mean_anomaly_deg":152.9678,"bstar":0.00021299,"rev_number":66244,"period_min":101.24813006569,"perigee_km":659.21431226367,"apogee_km":976.3028911316,"semimajor_km":7195.8956016976,"source":"CELESTRAK","updated_at":"2026-09-20T09:00:32.448216Z"}}